Location: Eschertshofen
(49.3064°N, 11.5756°E)
Time: 03:59:24
(UTC+00:00)

Spot 2 Rocket - Pass Details

Date: 20 June 2021
Orbit: 757 x 772 km, 98.5° (Epoch: 01 August)

Event Time Altitude Azimuth Distance (km) Brightness Sun altitude
Exits shadow 20:28:31 - 167° (SSE) 2,492 5.6 -8.3°
Reaches altitude 10° 20:29:01 10° 167° (SSE) 2,292 5.4 -8.4°
Maximum altitude 20:34:05 83° 255° (WSW) 778 3.6 -8.9°
Drops below altitude 10° 20:39:13 10° 344° (NNW) 2,319 7.3 -9.4°
Sets 20:41:32 0° 345° (NNW) 3,252 8.3 -9.6°
